^^
Your Local Weather - Clay, NY Station Historical Data
Daily Summary for May 1, 2017 Units:  Metric    English   Both
« Previous Day
Next Day »
Daily Weekly Monthly Yearly Custom
  High: Low: Average:
Temperature: 25.7 °C 10.1 °C 16.8 °C
Dew Point: 17.1 °C 5.8 °C 12.2 °C
Humidity: 93% 53% 76%
Wind Speed: 11.3km/h 0km/h 4km/h
Wind Gust: 16.1km/h - -
Wind- - ESE
Pressure: 1012.1 hPa 997.9 hPa -
Precipitation: 25.15 mm    
Historical Graphs
 
 
Tabular Data for May 1, 2017
Time Temperature Dew Point Pressure Wind Wind Speed Wind Gust Humidity Rainfall Rate (Hourly) solar
00:00 10.1 °C 5.9 °C 1012.1 hPa East 3.2 km/h 3.2 km/h 75% 0 mm 0 W/m2
00:06 10.1 °C 5.9 °C 1011.7 hPa East 3.2 km/h 6.4 km/h 75% 0 mm 0 W/m2
00:12 10.1 °C 5.8 °C 1011.7 hPa East 4.8 km/h 4.8 km/h 75% 0 mm 0 W/m2
00:18 10.1 °C 5.9 °C 1011.7 hPa ENE 4.8 km/h 8 km/h 75% 0 mm 0 W/m2
00:24 10.2 °C 5.8 °C 1011.7 hPa East 6.4 km/h 8 km/h 74% 0 mm 0 W/m2
00:30 10.3 °C 5.8 °C 1011.7 hPa NE 4.8 km/h 4.8 km/h 74% 0 mm 0 W/m2
00:36 10.2 °C 5.9 °C 1011.7 hPa East 4.8 km/h 8 km/h 75% 0 mm 0 W/m2
00:42 10.2 °C 6 °C 1011.7 hPa ENE 6.4 km/h 8 km/h 75% 0 mm 0 W/m2
00:48 10.3 °C 6.1 °C 1011.4 hPa East 6.4 km/h 9.7 km/h 75% 0 mm 0 W/m2
00:54 10.3 °C 6.1 °C 1011.4 hPa ENE 8 km/h 16.1 km/h 75% 0 mm 0 W/m2
01:00 10.3 °C 6.1 °C 1011.4 hPa NE 8 km/h 8 km/h 75% 0 mm 0 W/m2
01:06 10.4 °C 6.2 °C 1011.4 hPa ENE 6.4 km/h 11.3 km/h 75% 0 mm 0 W/m2
01:12 10.4 °C 6.2 °C 1011.4 hPa East 4.8 km/h 8 km/h 75% 0 mm 0 W/m2
01:18 10.5 °C 6.3 °C 1011.4 hPa ENE 4.8 km/h 8 km/h 75% 0 mm 0 W/m2
01:24 10.6 °C 6.5 °C 1011.1 hPa ENE 6.4 km/h 6.4 km/h 76% 0 mm 0 W/m2
01:30 10.6 °C 6.6 °C 1011.1 hPa ENE 6.4 km/h 6.4 km/h 76% 0 mm 0 W/m2
01:36 10.6 °C 6.6 °C 1010.7 hPa ENE 4.8 km/h 11.3 km/h 76% 0 mm 0 W/m2
01:42 10.7 °C 6.6 °C 1010.7 hPa ENE 6.4 km/h 14.5 km/h 76% 0 mm 0 W/m2
01:48 10.7 °C 6.7 °C 1010.7 hPa ENE 8 km/h 14.5 km/h 76% 0 mm 0 W/m2
01:54 10.8 °C 6.9 °C 1010.4 hPa ENE 6.4 km/h 8 km/h 77% 0 mm 0 W/m2
02:00 10.8 °C 6.9 °C 1010.7 hPa ENE 4.8 km/h 4.8 km/h 77% 0 mm 0 W/m2
02:06 10.9 °C 7 °C 1011.1 hPa North 4.8 km/h 4.8 km/h 77% 0 mm 0 W/m2
02:12 10.9 °C 7 °C 1011.1 hPa North 3.2 km/h 4.8 km/h 77% 0 mm 0 W/m2
02:18 10.8 °C 7.2 °C 1010.7 hPa ENE 1.6 km/h 4.8 km/h 78% 0 mm 0 W/m2
02:24 10.8 °C 7.2 °C 1011.1 hPa ENE 3.2 km/h 9.7 km/h 78% 0 mm 0 W/m2
02:30 10.8 °C 7.3 °C 1010.7 hPa North 4.8 km/h 6.4 km/h 79% 0 mm 0 W/m2
02:36 10.8 °C 7.3 °C 1010.4 hPa NE 4.8 km/h 8 km/h 79% 0 mm 0 W/m2
02:42 10.8 °C 7.3 °C 1010.4 hPa ENE 6.4 km/h 6.4 km/h 79% 0 mm 0 W/m2
02:48 10.9 °C 7.2 °C 1010.4 hPa East 6.4 km/h 12.9 km/h 78% 0 mm 0 W/m2
02:54 10.9 °C 7.4 °C 1010.4 hPa ENE 4.8 km/h 4.8 km/h 79% 0 mm 0 W/m2
03:00 10.9 °C 7.3 °C 1010 hPa ENE 6.4 km/h 12.9 km/h 78% 0 mm 0 W/m2
03:06 10.9 °C 7.3 °C 1010 hPa ENE 8 km/h 14.5 km/h 78% 0 mm 0 W/m2
03:12 10.9 °C 7.3 °C 1010 hPa ESE 6.4 km/h 6.4 km/h 78% 0 mm 0 W/m2
03:18 10.9 °C 7.2 °C 1010 hPa ENE 4.8 km/h 6.4 km/h 78% 0 mm 0 W/m2
03:24 10.9 °C 7.3 °C 1009.7 hPa ENE 4.8 km/h 6.4 km/h 78% 0 mm 0 W/m2
03:30 10.9 °C 7.3 °C 1009.7 hPa SE 4.8 km/h 4.8 km/h 78% 0 mm 0 W/m2
03:36 10.9 °C 7.3 °C 1009.7 hPa ENE 4.8 km/h 6.4 km/h 78% 0 mm 0 W/m2
03:42 10.9 °C 7.4 °C 1009.7 hPa East 4.8 km/h 4.8 km/h 79% 0 mm 0 W/m2
03:48 10.9 °C 7.4 °C 1009.4 hPa ENE 4.8 km/h 8 km/h 79% 0 mm 0 W/m2
03:54 10.8 °C 7.3 °C 1009.4 hPa ENE 4.8 km/h 8 km/h 79% 0 mm 0 W/m2
04:00 10.8 °C 7.3 °C 1009.4 hPa ENE 3.2 km/h 4.8 km/h 79% 0 mm 0 W/m2
04:06 10.7 °C 7.4 °C 1009 hPa ENE 3.2 km/h 8 km/h 80% 0 mm 0 W/m2
04:12 10.8 °C 7.4 °C 1009 hPa ENE 4.8 km/h 6.4 km/h 80% 0 mm 0 W/m2
04:18 10.7 °C 7.4 °C 1009 hPa East 3.2 km/h 6.4 km/h 80% 0 mm 0 W/m2
04:24 10.6 °C 7.5 °C 1009 hPa East 3.2 km/h 4.8 km/h 81% 0 mm 0 W/m2
04:30 10.6 °C 7.5 °C 1009 hPa East 3.2 km/h 3.2 km/h 81% 0 mm 0 W/m2
04:36 10.6 °C 7.5 °C 1009 hPa ESE 1.6 km/h 4.8 km/h 81% 0 mm 0 W/m2
04:42 10.6 °C 7.6 °C 1009 hPa ENE 1.6 km/h 4.8 km/h 82% 0 mm 0 W/m2
04:48 10.6 °C 7.6 °C 1009 hPa ENE 3.2 km/h 4.8 km/h 82% 0 mm 0 W/m2
04:54 10.6 °C 7.6 °C 1009 hPa ENE 3.2 km/h 4.8 km/h 82% 0 mm 0 W/m2
05:00 10.6 °C 7.6 °C 1008.7 hPa NE 4.8 km/h 4.8 km/h 82% 0 mm 0 W/m2
05:06 10.6 °C 7.6 °C 1008.7 hPa SE 3.2 km/h 8 km/h 82% 0 mm 0 W/m2
05:12 10.6 °C 7.7 °C 1008.7 hPa ENE 3.2 km/h 4.8 km/h 82% 0 mm 0 W/m2
05:18 10.6 °C 7.6 °C 1008.7 hPa ESE 3.2 km/h 4.8 km/h 82% 0 mm 0 W/m2
05:24 10.6 °C 7.8 °C 1008.7 hPa ENE 3.2 km/h 3.2 km/h 83% 0 mm 0 W/m2
05:30 10.6 °C 7.8 °C 1008.7 hPa ENE 3.2 km/h 3.2 km/h 83% 0 mm 0 W/m2
05:36 10.6 °C 7.8 °C 1008.7 hPa ENE 3.2 km/h 3.2 km/h 83% 0 mm 0 W/m2
05:42 10.7 °C 7.9 °C 1008.7 hPa NE 4.8 km/h 4.8 km/h 83% 0 mm 0 W/m2
05:48 10.7 °C 7.9 °C 1008.7 hPa ENE 3.2 km/h 4.8 km/h 83% 0 mm 0 W/m2
05:54 10.6 °C 7.8 °C 1008.7 hPa ENE 3.2 km/h 4.8 km/h 83% 0 mm 0 W/m2
06:00 10.6 °C 7.9 °C 1008.7 hPa ENE 3.2 km/h 3.2 km/h 84% 0 mm 0 W/m2
06:06 10.5 °C 7.9 °C 1008.7 hPa East 3.2 km/h 8 km/h 84% 0 mm 7 W/m2
06:12 10.5 °C 7.9 °C 1008.4 hPa ENE 3.2 km/h 4.8 km/h 84% 0 mm 14 W/m2
06:18 10.6 °C 8.2 °C 1008.4 hPa ENE 4.8 km/h 4.8 km/h 85% 0 mm 21 W/m2
06:24 10.6 °C 8.2 °C 1008.4 hPa ENE 4.8 km/h 4.8 km/h 85% 0 mm 28 W/m2
06:30 10.7 °C 8.3 °C 1008 hPa East 4.8 km/h 8 km/h 85% 0 mm 35 W/m2
06:36 10.9 °C 8.3 °C 1008 hPa East 6.4 km/h 9.7 km/h 84% 0 mm 49 W/m2
06:42 11.1 °C 8.4 °C 1008 hPa ENE 8 km/h 9.7 km/h 84% 0 mm 53 W/m2
06:48 11.3 °C 8.7 °C 1008 hPa ENE 4.8 km/h 9.7 km/h 84% 0 mm 67 W/m2
06:54 11.4 °C 8.8 °C 1008 hPa ESE 3.2 km/h 6.4 km/h 84% 0 mm 83 W/m2
07:00 11.6 °C 8.8 °C 1007.7 hPa ENE 4.8 km/h 4.8 km/h 83% 0 mm 95 W/m2
07:06 11.9 °C 9.1 °C 1008 hPa ENE 4.8 km/h 8 km/h 83% 0 mm 93 W/m2
07:12 12 °C 9 °C 1008 hPa East 4.8 km/h 4.8 km/h 82% 0 mm 79 W/m2
07:18 12.1 °C 9.1 °C 1008 hPa ENE 3.2 km/h 4.8 km/h 82% 0 mm 81 W/m2
07:24 12.3 °C 9.3 °C 1008 hPa ENE 3.2 km/h 4.8 km/h 82% 0 mm 104 W/m2
07:30 12.4 °C 9.4 °C 1008 hPa ENE 3.2 km/h 4.8 km/h 82% 0 mm 102 W/m2
07:36 12.6 °C 9.6 °C 1008 hPa NE 3.2 km/h 8 km/h 82% 0 mm 153 W/m2
07:42 12.9 °C 9.7 °C 1008 hPa ESE 4.8 km/h 4.8 km/h 81% 0 mm 111 W/m2
07:48 13.1 °C 9.9 °C 1008 hPa NE 3.2 km/h 4.8 km/h 81% 0 mm 146 W/m2
07:54 13.2 °C 9.8 °C 1008 hPa ENE 3.2 km/h 11.3 km/h 80% 0 mm 197 W/m2
08:00 13.5 °C 10.1 °C 1008 hPa ENE 3.2 km/h 3.2 km/h 80% 0 mm 162 W/m2
08:06 13.7 °C 10.1 °C 1008 hPa East 3.2 km/h 11.3 km/h 79% 0 mm 105 W/m2
08:12 13.7 °C 10.1 °C 1008 hPa East 3.2 km/h 4.8 km/h 79% 0 mm 153 W/m2
08:18 13.8 °C 10 °C 1008 hPa ENE 3.2 km/h 4.8 km/h 78% 0 mm 315 W/m2
08:24 14.1 °C 10.1 °C 1008 hPa East 3.2 km/h 4.8 km/h 77% 0 mm 144 W/m2
08:30 14.1 °C 10.1 °C 1008 hPa ENE 3.2 km/h 4.8 km/h 77% 0 mm 167 W/m2
08:36 14.3 °C 10.5 °C 1008 hPa East 3.2 km/h 4.8 km/h 78% 0 mm 353 W/m2
08:42 14.7 °C 10.5 °C 1008 hPa East 3.2 km/h 3.2 km/h 76% 0 mm 246 W/m2
08:48 14.9 °C 10.5 °C 1007.7 hPa East 4.8 km/h 8 km/h 75% 0 mm 257 W/m2
08:54 15.2 °C 10.9 °C 1007.7 hPa East 6.4 km/h 12.9 km/h 76% 0 mm 343 W/m2
09:00 15.6 °C 11.2 °C 1007.7 hPa NE 4.8 km/h 4.8 km/h 75% 0 mm 207 W/m2
09:06 15.9 °C 11.1 °C 1007.7 hPa ENE 1.6 km/h 4.8 km/h 73% 0 mm 327 W/m2
09:12 16.2 °C 11.4 °C 1007.7 hPa East 3.2 km/h 4.8 km/h 73% 0 mm 519 W/m2
09:18 16.7 °C 11.8 °C 1007.7 hPa East 4.8 km/h 8 km/h 73% 0 mm 543 W/m2
09:24 17.1 °C 11.8 °C 1007.3 hPa ENE 3.2 km/h 6.4 km/h 71% 0 mm 380 W/m2
09:30 17.3 °C 11.9 °C 1007.7 hPa ENE 3.2 km/h 3.2 km/h 71% 0 mm 439 W/m2
09:36 17.6 °C 11.8 °C 1007.7 hPa NE 4.8 km/h 11.3 km/h 69% 0 mm 424 W/m2
09:42 17.8 °C 12.2 °C 1007.7 hPa NNE 3.2 km/h 4.8 km/h 70% 0 mm 218 W/m2
09:48 17.7 °C 11.7 °C 1007.7 hPa ENE 3.2 km/h 4.8 km/h 68% 0 mm 221 W/m2
09:54 17.7 °C 12.1 °C 1007.3 hPa ENE 4.8 km/h 6.4 km/h 70% 0 mm 272 W/m2
10:00 17.9 °C 12.1 °C 1007.7 hPa ENE 4.8 km/h 4.8 km/h 69% 0 mm 543 W/m2
10:06 18.3 °C 12.5 °C 1007.3 hPa ENE 3.2 km/h 4.8 km/h 69% 0 mm 385 W/m2
10:12 18.5 °C 12.3 °C 1007.3 hPa NE 4.8 km/h 4.8 km/h 67% 0 mm 388 W/m2
10:18 18.8 °C 12.8 °C 1007.3 hPa ENE 3.2 km/h 4.8 km/h 68% 0 mm 475 W/m2
10:24 19.3 °C 13.1 °C 1007 hPa North 4.8 km/h 6.4 km/h 67% 0 mm 691 W/m2
10:30 20 °C 14.1 °C 1007 hPa NNE 4.8 km/h 4.8 km/h 69% 0 mm 608 W/m2
10:36 20.2 °C 13.6 °C 1007 hPa ENE 3.2 km/h 4.8 km/h 66% 0 mm 418 W/m2
10:42 21.1 °C 14.5 °C 1007 hPa NE 3.2 km/h 4.8 km/h 66% 0 mm 645 W/m2
10:48 21.3 °C 13.8 °C 1006.7 hPa ENE 3.2 km/h 8 km/h 62% 0 mm 443 W/m2
10:54 21.1 °C 13.8 °C 1006.7 hPa ENE 4.8 km/h 6.4 km/h 63% 0 mm 452 W/m2
11:00 21.2 °C 13.9 °C 1006.7 hPa ENE 4.8 km/h 4.8 km/h 63% 0 mm 508 W/m2
11:06 21.6 °C 14 °C 1006.3 hPa ENE 3.2 km/h 6.4 km/h 62% 0 mm 417 W/m2
11:12 21.8 °C 14.4 °C 1006.3 hPa ENE 3.2 km/h 4.8 km/h 63% 0 mm 418 W/m2
11:18 22.1 °C 14.7 °C 1006.3 hPa NE 3.2 km/h 4.8 km/h 63% 0 mm 471 W/m2
11:24 22.4 °C 15.1 °C 1006.3 hPa ENE 1.6 km/h 1.6 km/h 63% 0 mm 487 W/m2
11:30 22.8 °C 14.7 °C 1006.3 hPa ENE 1.6 km/h 3.2 km/h 60% 0 mm 394 W/m2
11:36 23.4 °C 16 °C 1006.3 hPa SW 1.6 km/h 3.2 km/h 63% 0 mm 645 W/m2
11:42 24.4 °C 15.6 °C 1006 hPa SW 3.2 km/h 3.2 km/h 58% 0 mm 585 W/m2
11:48 24.3 °C 15.2 °C 1006 hPa SSE 6.4 km/h 14.5 km/h 57% 0 mm 350 W/m2
11:54 24.6 °C 15.5 °C 1006 hPa SW 4.8 km/h 6.4 km/h 57% 0 mm 668 W/m2
12:00 24.9 °C 15.8 °C 1006 hPa SW 3.2 km/h 3.2 km/h 57% 0 mm 432 W/m2
12:06 24.9 °C 15.2 °C 1005.6 hPa West 6.4 km/h 8 km/h 55% 0 mm 686 W/m2
12:12 25.1 °C 15.4 °C 1005.6 hPa SW 8 km/h 12.9 km/h 55% 0 mm 656 W/m2
12:18 25.5 °C 16.1 °C 1005.6 hPa SSW 6.4 km/h 12.9 km/h 56% 0 mm 819 W/m2
12:24 25.7 °C 15.4 °C 1005.6 hPa WSW 4.8 km/h 6.4 km/h 53% 0 mm 418 W/m2
12:30 25.4 °C 15.7 °C 1005.3 hPa SSW 3.2 km/h 3.2 km/h 55% 0 mm 480 W/m2
12:36 25.4 °C 15.7 °C 1005.3 hPa SW 3.2 km/h 11.3 km/h 55% 0 mm 338 W/m2
12:42 25.2 °C 15.8 °C 1005.3 hPa South 6.4 km/h 12.9 km/h 56% 0 mm 330 W/m2
12:48 25.1 °C 15.2 °C 1005.3 hPa SW 6.4 km/h 12.9 km/h 54% 0 mm 482 W/m2
12:54 25.2 °C 15.3 °C 1005.3 hPa SSW 6.4 km/h 8 km/h 54% 0 mm 406 W/m2
13:00 25.6 °C 16.2 °C 1005 hPa SSE 4.8 km/h 8 km/h 56% 0 mm 686 W/m2
13:06 25.5 °C 15.8 °C 1005 hPa West 6.4 km/h 9.7 km/h 55% 0 mm 759 W/m2
13:12 25.4 °C 15.4 °C 1004.6 hPa SW 8 km/h 8 km/h 54% 0 mm 420 W/m2
13:18 25.3 °C 15.3 °C 1004.6 hPa SW 8 km/h 11.3 km/h 54% 0 mm 584 W/m2
13:24 25.4 °C 15.4 °C 1004.6 hPa WSW 8 km/h 8 km/h 54% 0 mm 780 W/m2
13:30 25.7 °C 15.7 °C 1004.3 hPa SSE 8 km/h 8 km/h 54% 0 mm 538 W/m2
13:36 25.3 °C 15.3 °C 1004.3 hPa SSE 8 km/h 12.9 km/h 54% 0 mm 267 W/m2
13:42 25 °C 15.3 °C 1004.6 hPa South 8 km/h 9.7 km/h 55% 0 mm 188 W/m2
13:48 24.8 °C 15.4 °C 1004.6 hPa WSW 6.4 km/h 9.7 km/h 56% 0 mm 120 W/m2
13:54 24.4 °C 15.8 °C 1004.3 hPa West 6.4 km/h 9.7 km/h 59% 0 mm 214 W/m2
14:00 24.1 °C 16.3 °C 1004.3 hPa WSW 4.8 km/h 4.8 km/h 62% 0 mm 135 W/m2
14:06 23.8 °C 16.6 °C 1003.9 hPa WSW 1.6 km/h 4.8 km/h 64% 0 mm 107 W/m2
14:12 23.4 °C 16.2 °C 1003.9 hPa WSW 1.6 km/h 1.6 km/h 64% 0 mm 163 W/m2
14:18 23.3 °C 17.1 °C 1003.6 hPa NW 1.6 km/h 3.2 km/h 68% 0 mm 338 W/m2
14:24 23.4 °C 16.9 °C 1003.6 hPa WNW 1.6 km/h 3.2 km/h 67% 0 mm 192 W/m2
14:30 23.3 °C 16.6 °C 1003.3 hPa WNW 1.6 km/h 1.6 km/h 66% 0 mm 179 W/m2
14:36 23.2 °C 17 °C 1003.3 hPa NW 1.6 km/h 1.6 km/h 68% 0 mm 121 W/m2
14:42 23.1 °C 16.7 °C 1003.3 hPa NW 1.6 km/h 4.8 km/h 67% 0 mm 120 W/m2
14:48 22.9 °C 16.5 °C 1002.9 hPa NW 1.6 km/h 4.8 km/h 67% 0 mm 202 W/m2
14:54 22.9 °C 16.5 °C 1002.9 hPa NE 1.6 km/h 3.2 km/h 67% 0 mm 343 W/m2
15:00 23.2 °C 16.7 °C 1002.6 hPa NE 1.6 km/h 1.6 km/h 67% 0 mm 346 W/m2
15:06 23.3 °C 16.6 °C 1002.6 hPa NE 1.6 km/h 1.6 km/h 66% 0 mm 153 W/m2
15:12 23.3 °C 16.6 °C 1002.6 hPa NE 1.6 km/h 1.6 km/h 66% 0 mm 114 W/m2
15:18 23.2 °C 16.5 °C 1001.9 hPa NE 3.2 km/h 4.8 km/h 66% 0 mm 234 W/m2
15:24 23.3 °C 16.6 °C 1001.9 hPa ENE 3.2 km/h 3.2 km/h 66% 0 mm 285 W/m2
15:30 23.4 °C 16.7 °C 1001.6 hPa ENE 3.2 km/h 3.2 km/h 66% 0 mm 276 W/m2
15:36 23.6 °C 17.1 °C 1000.9 hPa ENE 3.2 km/h 9.7 km/h 67% 0 mm 387 W/m2
15:42 23.8 °C 17.1 °C 1000.6 hPa East 4.8 km/h 4.8 km/h 66% 0 mm 413 W/m2
15:48 24.1 °C 17.1 °C 1000.6 hPa ENE 3.2 km/h 4.8 km/h 65% 0 mm 464 W/m2
15:54 24.3 °C 17.1 °C 1000.6 hPa NE 3.2 km/h 6.4 km/h 64% 0 mm 513 W/m2
16:00 24.1 °C 16.4 °C 1000.6 hPa North 4.8 km/h 4.8 km/h 62% 0 mm 148 W/m2
16:06 23.9 °C 16.2 °C 1000.6 hPa ENE 4.8 km/h 8 km/h 62% 0 mm 93 W/m2
16:12 23.7 °C 16 °C 1000.2 hPa NE 4.8 km/h 8 km/h 62% 0 mm 70 W/m2
16:18 23.6 °C 16.2 °C 1000.2 hPa NE 3.2 km/h 8 km/h 63% 0 mm 109 W/m2
16:24 23.6 °C 16.7 °C 1000.2 hPa NE 1.6 km/h 3.2 km/h 65% 0 mm 325 W/m2
16:30 23.8 °C 16.3 °C 999.9 hPa NE 1.6 km/h 1.6 km/h 63% 0 mm 121 W/m2
16:36 23.8 °C 16.1 °C 999.9 hPa ENE 3.2 km/h 6.4 km/h 62% 0 mm 81 W/m2
16:42 23.8 °C 16.1 °C 999.9 hPa ENE 3.2 km/h 3.2 km/h 62% 0 mm 35 W/m2
16:48 23.8 °C 16.3 °C 999.9 hPa ENE 1.6 km/h 3.2 km/h 63% 0 mm 26 W/m2
16:54 23.6 °C 16.9 °C 999.5 hPa ENE 1.6 km/h 3.2 km/h 66% 0 mm 60 W/m2
17:00 23.6 °C 16.7 °C 999.2 hPa SSE 3.2 km/h 14.5 km/h 65% 0 mm 135 W/m2
17:06 24.2 °C 16.9 °C 999.2 hPa South 9.7 km/h 14.5 km/h 64% 0 mm 193 W/m2
17:12 24.4 °C 16.9 °C 998.9 hPa SSE 11.3 km/h 12.9 km/h 63% 0 mm 137 W/m2
17:18 24.2 °C 16.4 °C 998.9 hPa South 9.7 km/h 12.9 km/h 62% 0 mm 97 W/m2
17:24 24.1 °C 16.1 °C 998.9 hPa SSE 11.3 km/h 12.9 km/h 61% 0 mm 70 W/m2
17:30 23.9 °C 16.2 °C 999.2 hPa SE 9.7 km/h 12.9 km/h 62% 0 mm 40 W/m2
17:42 23.7 °C 16 °C 998.9 hPa SSE 9.7 km/h 9.7 km/h 62% 0 mm 46 W/m2
17:48 23.2 °C 16.5 °C 998.5 hPa South 9.7 km/h 11.3 km/h 66% 0 mm 30 W/m2
17:54 22.9 °C 16.5 °C 998.2 hPa East 9.7 km/h 9.7 km/h 67% 0 mm 39 W/m2
18:00 22.8 °C 16.4 °C 998.5 hPa SSE 8 km/h 8 km/h 67% 0 mm 40 W/m2
18:06 22.8 °C 16.4 °C 999.2 hPa SSW 9.7 km/h 14.5 km/h 67% 0 mm 26 W/m2
18:12 22.8 °C 16.4 °C 999.9 hPa South 8 km/h 11.3 km/h 67% 0 mm 16 W/m2
18:18 22.9 °C 16.5 °C 1000.2 hPa South 8 km/h 11.3 km/h 67% 0 mm 11 W/m2
18:24 22.9 °C 16.4 °C 1000.2 hPa SSW 6.4 km/h 8 km/h 67% 0 mm 5 W/m2
18:30 22.6 °C 16.2 °C 1001.2 hPa NW 3.2 km/h 11.3 km/h 67% 0 mm 0 W/m2
18:36 19.4 °C 14.5 °C 1001.6 hPa WNW 9.7 km/h 16.1 km/h 73% 0 mm 0 W/m2
18:42 17.7 °C 14.4 °C 1001.6 hPa West 9.7 km/h 12.9 km/h 81% 6.1 mm 0 W/m2
18:48 16.8 °C 14.3 °C 1001.9 hPa West 6.4 km/h 12.9 km/h 85% 57.91 mm 0 W/m2
18:54 16.6 °C 14.4 °C 1000.9 hPa WNW 3.2 km/h 4.8 km/h 87% 48.01 mm 0 W/m2
19:00 16.4 °C 14.4 °C 1000.9 hPa West 1.6 km/h 6.4 km/h 88% 13.46 mm 0 W/m2
19:06 16.3 °C 14.4 °C 1000.9 hPa SW 1.6 km/h 6.4 km/h 89% 6.1 mm 0 W/m2
19:12 16.2 °C 14.4 °C 1000.6 hPa SW 1.6 km/h 1.6 km/h 89% 9.14 mm 0 W/m2
19:18 16.2 °C 14.6 °C 1000.9 hPa Calm   1.6 km/h 90% 3.56 mm 0 W/m2
19:26 16.2 °C 14.6 °C 1001.2 hPa Calm     90% 2.03 mm 0 W/m2
19:32 16.2 °C 14.8 °C 1001.6 hPa Calm     91% 6.86 mm 0 W/m2
19:38 16.2 °C 14.7 °C 1001.2 hPa Calm     91% 4.06 mm 0 W/m2
19:44 16.2 °C 14.8 °C 1000.9 hPa Calm     91% 6.35 mm 0 W/m2
19:50 16.2 °C 14.7 °C 1000.9 hPa Calm   1.6 km/h 91% 5.84 mm 0 W/m2
19:56 16.1 °C 14.7 °C 1001.2 hPa West 1.6 km/h 1.6 km/h 91% 6.1 mm 0 W/m2
20:02 16 °C 14.6 °C 1001.6 hPa Calm     91% 7.62 mm 0 W/m2
20:08 15.9 °C 14.5 °C 1001.6 hPa Calm   1.6 km/h 91% 8.38 mm 0 W/m2
20:14 15.8 °C 14.4 °C 1001.2 hPa ENE 1.6 km/h 4.8 km/h 91% 7.11 mm 0 W/m2
20:20 15.7 °C 14.4 °C 1000.9 hPa ENE 3.2 km/h 3.2 km/h 92% 6.86 mm 0 W/m2
20:26 15.6 °C 14.3 °C 1000.6 hPa ENE 1.6 km/h 6.4 km/h 92% 5.08 mm 0 W/m2
20:32 15.6 °C 14.3 °C 1000.2 hPa ENE 3.2 km/h 6.4 km/h 92% 2.03 mm 0 W/m2
20:38 15.4 °C 14.2 °C 1000.2 hPa East 3.2 km/h 6.4 km/h 92% 3.56 mm 0 W/m2
20:44 15.4 °C 14.2 °C 1000.2 hPa SSE 4.8 km/h 8 km/h 92% 6.1 mm 0 W/m2
20:50 15.4 °C 14.2 °C 1000.6 hPa ESE 4.8 km/h 4.8 km/h 92% 6.6 mm 0 W/m2
20:56 15.4 °C 14.2 °C 999.9 hPa ESE 3.2 km/h 4.8 km/h 92% 5.84 mm 0 W/m2
21:02 15.4 °C 14.1 °C 998.5 hPa ENE 4.8 km/h 12.9 km/h 92% 3.56 mm 0 W/m2
21:08 15.4 °C 14.3 °C 998.2 hPa ENE 6.4 km/h 12.9 km/h 93% 1.52 mm 0 W/m2
21:14 15.4 °C 14.3 °C 998.5 hPa SE 6.4 km/h 6.4 km/h 93% 1.52 mm 0 W/m2
21:20 15.4 °C 14.3 °C 998.9 hPa SSE 4.8 km/h 6.4 km/h 93% 1.27 mm 0 W/m2
21:26 15.4 °C 14.3 °C 998.9 hPa SE 3.2 km/h 6.4 km/h 93% 0 mm 0 W/m2
21:32 15.4 °C 14.3 °C 999.2 hPa SSE 3.2 km/h 4.8 km/h 93% 0 mm 0 W/m2
21:38 15.5 °C 14.4 °C 999.2 hPa SE 3.2 km/h 4.8 km/h 93% 0 mm 0 W/m2
21:44 15.5 °C 14.4 °C 999.2 hPa SE 3.2 km/h 3.2 km/h 93% 0 mm 0 W/m2
21:50 15.5 °C 14.4 °C 999.2 hPa SE 3.2 km/h 3.2 km/h 93% 0 mm 0 W/m2
21:56 15.4 °C 14.3 °C 999.2 hPa SSE 1.6 km/h 4.8 km/h 93% 0 mm 0 W/m2
22:02 15.4 °C 14.3 °C 999.2 hPa SE 1.6 km/h 3.2 km/h 93% 0 mm 0 W/m2
22:08 15.4 °C 14.3 °C 999.2 hPa ESE 1.6 km/h 4.8 km/h 93% 0 mm 0 W/m2
22:14 15.4 °C 14.3 °C 999.2 hPa ESE 1.6 km/h 3.2 km/h 93% 0 mm 0 W/m2
22:20 15.4 °C 14.3 °C 999.2 hPa SE 1.6 km/h 1.6 km/h 93% 0 mm 0 W/m2
22:26 15.3 °C 14.2 °C 999.2 hPa SE 3.2 km/h 4.8 km/h 93% 0 mm 0 W/m2
22:32 15.3 °C 14.2 °C 998.9 hPa SE 3.2 km/h 3.2 km/h 93% 0 mm 0 W/m2
22:38 15.3 °C 14.2 °C 998.5 hPa SE 1.6 km/h 3.2 km/h 93% 0 mm 0 W/m2
22:44 15.4 °C 14.3 °C 998.2 hPa SE 1.6 km/h 3.2 km/h 93% 0 mm 0 W/m2
22:50 15.3 °C 14.2 °C 998.2 hPa SE 1.6 km/h 1.6 km/h 93% 0 mm 0 W/m2
22:56 15.3 °C 14.2 °C 998.2 hPa Calm   1.6 km/h 93% 0 mm 0 W/m2
23:02 15.3 °C 14.2 °C 998.2 hPa Calm     93% 0 mm 0 W/m2
23:08 15.2 °C 14.1 °C 998.2 hPa Calm     93% 0 mm 0 W/m2
23:14 15.2 °C 14.1 °C 998.2 hPa Calm   3.2 km/h 93% 0 mm 0 W/m2
23:20 15.2 °C 14.1 °C 997.9 hPa Calm     93% 0 mm 0 W/m2
23:26 15.2 °C 14.1 °C 998.2 hPa Calm   1.6 km/h 93% 0 mm 0 W/m2
23:32 15.2 °C 14.1 °C 998.2 hPa Calm     93% 0 mm 0 W/m2
23:38 15.2 °C 14.1 °C 998.2 hPa Calm   1.6 km/h 93% 0 mm 0 W/m2
23:44 15.2 °C 14.1 °C 998.2 hPa Calm     93% 0 mm 0 W/m2
23:50 15.2 °C 14.1 °C 998.2 hPa Calm     93% 0 mm 0 W/m2
23:56 15.2 °C 14.1 °C 998.2 hPa Calm     93% 0 mm 0 W/m2
Country Meadow, Clay, NY, USA
Compliments of Weather Underground - 2 mb